| time (UTC) | temp F | wind direction | speed knots | gust knots | rain 1hr in | rain 24hr in | rain mn in | humidity % | barometer mb |
| 20260905104335 | 60 | 87 | 0.0 | 0.0 | 0.00 | 0.00 | 0.00 | 91 | |
| 20260905104133 | 60 | 87 | 0.0 | 0.0 | 0.00 | 0.00 | 0.00 | 91 | |
| 20260905103932 | 60 | 87 | 0.0 | 0.0 | 0.00 | 0.00 | 0.00 | 91 | |
| 20260905103730 | 60 | 87 | 0.0 | 0.0 | 0.00 | 0.00 | 0.00 | 91 | |
| 20260905103528 | 60 | 87 | 0.0 | 0.0 | 0.00 | 0.00 | 0.00 | 91 | |
| 20260905103326 | 60 | 87 | 0.0 | 0.0 | 0.00 | 0.00 | 0.00 | 91 | |
| 20260905103124 | 60 | 87 | 0.0 | 0.0 | 0.00 | 0.00 | 0.00 | 91 | |
| 20260905102922 | 60 | 87 | 0.0 | 0.0 | 0.00 | 0.00 | 0.00 | 91 | |
| 20260905102720 | 60 | 87 | 0.0 | 0.0 | 0.00 | 0.00 | 0.00 | 91 | |
| 20260905102518 | 60 | 87 | 0.0 | 0.0 | 0.00 | 0.00 | 0.00 | 91 | |
| 20260905102316 | 60 | 87 | 0.0 | 0.0 | 0.00 | 0.00 | 0.00 | 91 | |
| 20260905102114 | 60 | 87 | 0.0 | 0.0 | 0.00 | 0.00 | 0.00 | 91 | |
| 20260905101912 | 60 | 87 | 0.0 | 0.0 | 0.00 | 0.00 | 0.00 | 91 | |
| 20260905101711 | 60 | 87 | 0.0 | 0.0 | 0.00 | 0.00 | 0.00 | 91 | |
| 20260905101509 | 60 | 87 | 0.0 | 0.0 | 0.00 | 0.00 | 0.00 | 92 | |
| 20260905101307 | 60 | 87 | 0.0 | 0.0 | 0.00 | 0.00 | 0.00 | 92 | |
| 20260905101105 | 60 | 87 | 0.0 | 0.0 | 0.00 | 0.00 | 0.00 | 92 | |
| 20260905100903 | 60 | 87 | 0.0 | 0.0 | 0.00 | 0.00 | 0.00 | 92 | |
| 20260905100701 | 60 | 87 | 0.0 | 0.0 | 0.00 | 0.00 | 0.00 | 92 | |
| 20260905100459 | 60 | 87 | 0.0 | 0.0 | 0.00 | 0.00 | 0.00 | 92 | |
| 20260905100257 | 60 | 87 | 0.0 | 0.0 | 0.00 | 0.00 | 0.00 | 91 | |
| 20260905100055 | 60 | 87 | 0.0 | 0.0 | 0.00 | 0.00 | 0.00 | 92 | |
| 20260905095853 | 60 | 87 | 0.0 | 0.0 | 0.00 | 0.00 | 0.00 | 92 | |
| 20260905095651 | 60 | 87 | 0.0 | 0.0 | 0.00 | 0.00 | 0.00 | 92 | |
| 20260905095450 | 60 | 87 | 0.0 | 0.0 | 0.00 | 0.00 | 0.00 | 92 | |
| 20260905095248 | 60 | 87 | 0.0 | 0.0 | 0.00 | 0.00 | 0.00 | 92 | |
| 20260905095046 | 60 | 87 | 0.0 | 0.0 | 0.00 | 0.00 | 0.00 | 92 | |
| 20260905094844 | 60 | 87 | 0.0 | 0.0 | 0.00 | 0.00 | 0.00 | 92 | |
| 20260905094642 | 60 | 87 | 0.0 | 0.0 | 0.00 | 0.00 | 0.00 | 92 | |
| 20260905094440 | 60 | 87 | 0.0 | 0.0 | 0.00 | 0.00 | 0.00 | 92 | |
| 20260905094238 | 60 | 87 | 0.0 | 0.0 | 0.00 | 0.00 | 0.00 | 92 | |
| 20260905094036 | 60 | 87 | 0.0 | 0.0 | 0.00 | 0.00 | 0.00 | 92 | |
| 20260905093834 | 60 | 87 | 0.0 | 0.0 | 0.00 | 0.00 | 0.00 | 92 | |
| 20260905093632 | 60 | 87 | 0.0 | 0.9 | 0.00 | 0.00 | 0.00 | 92 | |
| 20260905093431 | 60 | 87 | 0.0 | 0.9 | 0.00 | 0.00 | 0.00 | 91 | |
| 20260905093229 | 60 | 87 | 0.0 | 2.6 | 0.00 | 0.00 | 0.00 | 91 | |
| 20260905093027 | 60 | 87 | 0.0 | 2.6 | 0.00 | 0.00 | 0.00 | 91 | |
| 20260905092825 | 60 | 67 | 0.0 | 2.6 | 0.00 | 0.00 | 0.00 | 92 | |
| 20260905092623 | 59 | 82 | 0.0 | 1.7 | 0.00 | 0.00 | 0.00 | 92 | |
| 20260905092421 | 59 | 82 | 0.0 | 1.7 | 0.00 | 0.00 | 0.00 | 92 | |
| 20260905092219 | 59 | 95 | 0.9 | 2.6 | 0.00 | 0.00 | 0.00 | 91 | |
| 20260905092017 | 59 | 80 | 0.0 | 2.6 | 0.00 | 0.00 | 0.00 | 91 | |
| 20260905091815 | 59 | 80 | 0.0 | 2.6 | 0.00 | 0.00 | 0.00 | 90 | |
| 20260905091613 | 60 | 80 | 0.0 | 0.0 | 0.00 | 0.00 | 0.00 | 90 | |
| 20260905091248 | 60 | 59 | 0.0 | 0.0 | 0.00 | 0.00 | 0.00 | 90 | |
| 20260905091210 | 60 | 59 | 0.0 | 0.0 | 0.00 | 0.00 | 0.00 | 90 | |
| 20260905091008 | 61 | 59 | 0.0 | 0.0 | 0.00 | 0.00 | 0.00 | 90 | |
| 20260905090806 | 61 | 59 | 0.0 | 0.0 | 0.00 | 0.00 | 0.00 | 91 | |
| 20260905090604 | 61 | 59 | 0.0 | 0.0 | 0.00 | 0.00 | 0.00 | 91 | |
| 20260905090402 | 61 | 59 | 0.0 | 0.0 | 0.00 | 0.00 | 0.00 | 91 | |
| 20260905090200 | 61 | 59 | 0.0 | 0.0 | 0.00 | 0.00 | 0.00 | 91 | |
| 20260905085958 | 61 | 59 | 0.0 | 0.0 | 0.00 | 0.00 | 0.00 | 91 | |
| 20260905085756 | 61 | 59 | 0.0 | 0.0 | 0.00 | 0.00 | 0.00 | 91 | |
| 20260905085554 | 61 | 59 | 0.0 | 0.0 | 0.00 | 0.00 | 0.00 | 91 | |
| 20260905085353 | 61 | 59 | 0.0 | 0.0 | 0.00 | 0.00 | 0.00 | 91 | |
| 20260905085151 | 61 | 59 | 0.0 | 0.0 | 0.00 | 0.00 | 0.00 | 91 | |
| 20260905084949 | 60 | 59 | 0.0 | 0.0 | 0.00 | 0.00 | 0.00 | 91 | |
| 20260905084747 | 60 | 59 | 0.0 | 0.0 | 0.00 | 0.00 | 0.00 | 91 | |
| 20260905084343 | 60 | 59 | 0.0 | 0.0 | 0.00 | 0.00 | 0.00 | 91 | |
| 20260905084141 | 60 | 59 | 0.0 | 0.0 | 0.00 | 0.00 | 0.00 | 90 | |
| 20260905083939 | 60 | 59 | 0.0 | 0.0 | 0.00 | 0.00 | 0.00 | 90 | |
| 20260905083737 | 60 | 59 | 0.0 | 1.7 | 0.00 | 0.00 | 0.00 | 90 | |
| 20260905083536 | 60 | 59 | 0.0 | 1.7 | 0.00 | 0.00 | 0.00 | 90 | |
| 20260905083333 | 60 | 59 | 0.0 | 1.7 | 0.00 | 0.00 | 0.00 | 90 | |
| 20260905083132 | 60 | 109 | 0.9 | 0.0 | 0.00 | 0.00 | 0.00 | 89 | |
| 20260905082728 | 61 | 71 | 0.0 | 0.0 | 0.00 | 0.00 | 0.00 | 90 | |
| 20260905082324 | 61 | 71 | 0.0 | 0.0 | 0.00 | 0.00 | 0.00 | 90 | |
| 20260905082122 | 60 | 71 | 0.0 | 0.9 | 0.00 | 0.00 | 0.00 | 90 | |
| 20260905081920 | 60 | 71 | 0.0 | 0.9 | 0.00 | 0.00 | 0.00 | 90 | |
| 20260905081718 | 60 | 71 | 0.0 | 0.9 | 0.00 | 0.00 | 0.00 | 89 | |
| 20260905081516 | 61 | 78 | 0.0 | 0.9 | 0.00 | 0.00 | 0.00 | 89 | |
| 20260905081314 | 61 | 109 | 0.9 | 0.9 | 0.00 | 0.00 | 0.00 | 89 | |
| 20260905081113 | 61 | 88 | 0.0 | 0.0 | 0.00 | 0.00 | 0.00 | 89 | |
| 20260905080911 | 61 | 267 | 0.0 | 0.0 | 0.00 | 0.00 | 0.00 | 89 | |
| 20260905080709 | 61 | 267 | 0.0 | 0.0 | 0.00 | 0.00 | 0.00 | 89 | |
| 20260905080344 | 61 | 267 | 0.0 | 0.0 | 0.00 | 0.00 | 0.00 | 89 | |
| 20260905080305 | 61 | 267 | 0.0 | 0.0 | 0.00 | 0.00 | 0.00 | 89 | |
| 20260905075901 | 61 | 267 | 0.0 | 0.0 | 0.00 | 0.00 | 0.00 | 89 | |
| 20260905075659 | 61 | 267 | 0.0 | 0.0 | 0.00 | 0.00 | 0.00 | 89 | |
| 20260905075457 | 61 | 267 | 0.0 | 0.0 | 0.00 | 0.00 | 0.00 | 89 | |
| 20260905075255 | 61 | 267 | 0.0 | 0.0 | 0.00 | 0.00 | 0.00 | 89 | |
| 20260905075056 | 61 | 267 | 0.0 | 0.0 | 0.00 | 0.00 | 0.00 | 89 | |
| 20260905074852 | 61 | 267 | 0.0 | 0.0 | 0.00 | 0.00 | 0.00 | 89 | |
| 20260905074651 | 61 | 267 | 0.0 | 0.0 | 0.00 | 0.00 | 0.00 | 89 | |
| 20260905074448 | 61 | 267 | 0.0 | 0.0 | 0.00 | 0.00 | 0.00 | 88 | |
| 20260905074248 | 61 | 267 | 0.0 | 0.0 | 0.00 | 0.00 | 0.00 | 88 | |
| 20260905074044 | 61 | 267 | 0.0 | 0.0 | 0.00 | 0.00 | 0.00 | 88 | |
| 20260905073642 | 61 | 267 | 0.0 | 0.0 | 0.00 | 0.00 | 0.00 | 88 | |
| 20260905073440 | 61 | 267 | 0.0 | 0.0 | 0.00 | 0.00 | 0.00 | 88 | |
| 20260905073236 | 61 | 267 | 0.0 | 0.0 | 0.00 | 0.00 | 0.00 | 88 | |
| 20260905073035 | 61 | 267 | 0.0 | 0.0 | 0.00 | 0.00 | 0.00 | 88 | |
| 20260905072833 | 61 | 267 | 0.0 | 0.0 | 0.00 | 0.00 | 0.00 | 88 | |
| 20260905072631 | 61 | 267 | 0.0 | 0.0 | 0.00 | 0.00 | 0.00 | 88 | |
| 20260905072429 | 61 | 267 | 0.0 | 0.0 | 0.00 | 0.00 | 0.00 | 88 | |
| 20260905072227 | 61 | 267 | 0.0 | 0.0 | 0.00 | 0.00 | 0.00 | 88 | |
| 20260905072025 | 61 | 267 | 0.0 | 0.0 | 0.00 | 0.00 | 0.00 | 88 | |
| 20260905071823 | 61 | 267 | 0.0 | 0.0 | 0.00 | 0.00 | 0.00 | 88 | |
| 20260905071621 | 62 | 267 | 0.0 | 0.0 | 0.00 | 0.00 | 0.00 | 88 | |
| 20260905071217 | 62 | 267 | 0.0 | 0.0 | 0.00 | 0.00 | 0.00 | 87 | |
| 20260905071015 | 62 | 267 | 0.0 | 0.0 | 0.00 | 0.00 | 0.00 | 87 | |
| 20260905070814 | 61 | 267 | 0.0 | 0.0 | 0.00 | 0.00 | 0.00 | 87 | |
| 20260905070612 | 62 | 267 | 0.0 | 0.0 | 0.00 | 0.00 | 0.00 | 87 | |
| 20260905070410 | 62 | 267 | 0.0 | 0.0 | 0.00 | 0.00 | 0.00 | 87 | |
| 20260905070242 | 62 | 267 | 0.0 | 0.0 | 0.00 | 0.00 | 0.00 | 87 | |
| 20260905070210 | 62 | 267 | 0.0 | 0.0 | 0.00 | 0.00 | 0.00 | 87 | |
| 20260905065804 | 62 | 267 | 0.0 | 0.0 | 0.00 | 0.00 | 0.00 | 87 | |
| 20260905065602 | 62 | 267 | 0.0 | 0.0 | 0.00 | 0.00 | 0.00 | 87 | |
| 20260905065400 | 62 | 267 | 0.0 | 0.0 | 0.00 | 0.00 | 0.00 | 87 | |
| 20260905065158 | 62 | 267 | 0.0 | 0.0 | 0.00 | 0.00 | 0.00 | 87 | |
| 20260905064755 | 62 | 267 | 0.0 | 0.0 | 0.00 | 0.00 | 0.00 | 87 | |
| 20260905064553 | 62 | 267 | 0.0 | 0.0 | 0.00 | 0.00 | 0.00 | 86 | |
| 20260905064351 | 62 | 267 | 0.0 | 0.0 | 0.00 | 0.00 | 0.00 | 86 | |
| 20260905064151 | 62 | 267 | 0.0 | 0.0 | 0.00 | 0.00 | 0.00 | 86 | |
| 20260905063947 | 62 | 267 | 0.0 | 0.0 | 0.00 | 0.00 | 0.00 | 86 | |
| 20260905063745 | 63 | 267 | 0.0 | 0.0 | 0.00 | 0.00 | 0.00 | 86 | |
| 20260905063543 | 63 | 267 | 0.0 | 0.0 | 0.00 | 0.00 | 0.00 | 86 | |
| 20260905063341 | 63 | 267 | 0.0 | 0.0 | 0.00 | 0.00 | 0.00 | 86 | |
| 20260905063141 | 63 | 267 | 0.0 | 0.0 | 0.00 | 0.00 | 0.00 | 86 | |
| 20260905062937 | 63 | 267 | 0.0 | 0.0 | 0.00 | 0.00 | 0.00 | 86 | |
| 20260905062735 | 63 | 267 | 0.0 | 0.0 | 0.00 | 0.00 | 0.00 | 86 | |
| 20260905062536 | 63 | 267 | 0.0 | 0.0 | 0.00 | 0.00 | 0.00 | 86 | |
| 20260905062333 | 63 | 267 | 0.0 | 0.0 | 0.00 | 0.00 | 0.00 | 86 | |
| 20260905062130 | 63 | 267 | 0.0 | 0.0 | 0.00 | 0.00 | 0.00 | 86 | |
| 20260905061928 | 63 | 267 | 0.0 | 0.0 | 0.00 | 0.00 | 0.00 | 85 | |
| 20260905061726 | 63 | 267 | 0.0 | 0.0 | 0.00 | 0.00 | 0.00 | 85 | |
| 20260905061525 | 63 | 267 | 0.0 | 0.0 | 0.00 | 0.00 | 0.00 | 85 | |
| 20260905061323 | 63 | 267 | 0.0 | 0.0 | 0.00 | 0.00 | 0.00 | 85 | |
| 20260905061120 | 63 | 267 | 0.0 | 0.0 | 0.00 | 0.00 | 0.00 | 85 | |
| 20260905060918 | 63 | 267 | 0.0 | 0.0 | 0.00 | 0.00 | 0.00 | 85 | |
| 20260905060716 | 63 | 267 | 0.0 | 0.0 | 0.00 | 0.00 | 0.00 | 85 | |
| 20260905060516 | 64 | 267 | 0.0 | 0.0 | 0.00 | 0.00 | 0.00 | 85 | |
| 20260905060111 | 64 | 267 | 0.0 | 0.0 | 0.00 | 0.00 | 0.00 | 85 | |
| 20260905055909 | 64 | 267 | 0.0 | 0.0 | 0.00 | 0.00 | 0.00 | 85 | |
| 20260905055505 | 64 | 267 | 0.0 | 0.0 | 0.00 | 0.00 | 0.00 | 85 | |
| 20260905055306 | 64 | 267 | 0.0 | 0.0 | 0.00 | 0.00 | 0.00 | 85 | |
| 20260905054901 | 64 | 267 | 0.0 | 0.0 | 0.00 | 0.00 | 0.00 | 85 | |
| 20260905054657 | 64 | 267 | 0.0 | 0.0 | 0.00 | 0.00 | 0.00 | 85 | |
| 20260905054457 | 64 | 267 | 0.0 | 0.0 | 0.00 | 0.00 | 0.00 | 85 | |
| 20260905054253 | 64 | 267 | 0.0 | 0.0 | 0.00 | 0.00 | 0.00 | 85 | |
| 20260905054052 | 64 | 267 | 0.0 | 0.0 | 0.00 | 0.00 | 0.00 | 85 | |
| 20260905053850 | 64 | 267 | 0.0 | 0.0 | 0.00 | 0.00 | 0.00 | 85 | |
| 20260905053244 | 64 | 267 | 0.0 | 0.0 | 0.00 | 0.00 | 0.00 | 85 | |
| 20260905053042 | 65 | 267 | 0.0 | 0.0 | 0.00 | 0.00 | 0.00 | 85 | |
| 20260905052840 | 65 | 267 | 0.0 | 0.0 | 0.00 | 0.00 | 0.00 | 85 | |
| 20260905052638 | 65 | 267 | 0.0 | 0.0 | 0.00 | 0.00 | 0.00 | 85 | |
| 20260905052436 | 65 | 267 | 0.0 | 0.0 | 0.00 | 0.00 | 0.00 | 84 | |
| 20260905052234 | 65 | 267 | 0.0 | 0.0 | 0.00 | 0.00 | 0.00 | 84 | |
| 20260905052034 | 65 | 267 | 0.0 | 0.0 | 0.00 | 0.00 | 0.00 | 84 | |
| 20260905051831 | 65 | 267 | 0.0 | 0.0 | 0.00 | 0.00 | 0.00 | 84 | |
| 20260905051630 | 65 | 267 | 0.0 | 0.0 | 0.00 | 0.00 | 0.00 | 84 | |
| 20260905051429 | 65 | 267 | 0.0 | 0.0 | 0.00 | 0.00 | 0.00 | 83 | |
| 20260905051228 | 65 | 267 | 0.0 | 0.0 | 0.00 | 0.00 | 0.00 | 83 | |
| 20260905051023 | 65 | 267 | 0.0 | 0.0 | 0.00 | 0.00 | 0.00 | 83 | |
| 20260905050821 | 65 | 267 | 0.0 | 0.0 | 0.00 | 0.00 | 0.00 | 83 | |
| 20260905050619 | 65 | 267 | 0.0 | 0.0 | 0.00 | 0.00 | 0.00 | 83 | |
| 20260905050417 | 65 | 267 | 0.0 | 0.0 | 0.00 | 0.00 | 0.00 | 83 | |
| 20260905050215 | 65 | 267 | 0.0 | 0.0 | 0.00 | 0.00 | 0.00 | 82 | |
| 20260905050014 | 65 | 267 | 0.0 | 0.0 | 0.00 | 0.00 | 0.00 | 82 | |
| 20260905045610 | 66 | 267 | 0.0 | 0.0 | 0.00 | 0.00 | 0.00 | 82 | |
| 20260905045408 | 66 | 267 | 0.0 | 0.0 | 0.00 | 0.00 | 0.00 | 82 | |
| 20260905045206 | 66 | 267 | 0.0 | 0.0 | 0.00 | 0.00 | 0.00 | 82 | |
| 20260905044600 | 66 | 267 | 0.0 | 0.0 | 0.00 | 0.00 | 0.00 | 82 | |
| 20260905044358 | 66 | 267 | 0.0 | 0.0 | 0.00 | 0.00 | 0.00 | 82 | |
| 20260905044156 | 66 | 267 | 0.0 | 0.0 | 0.00 | 0.00 | 0.00 | 82 | |
| 20260905043954 | 66 | 267 | 0.0 | 0.0 | 0.00 | 0.00 | 0.00 | 82 | |
| 20260905043752 | 66 | 267 | 0.0 | 0.0 | 0.00 | 0.00 | 0.00 | 82 | |
| 20260905043551 | 66 | 267 | 0.0 | 0.0 | 0.00 | 0.00 | 0.00 | 82 | |
| 20260905043349 | 66 | 267 | 0.0 | 0.0 | 0.00 | 0.00 | 0.00 | 82 | |
| 20260905043147 | 67 | 267 | 0.0 | 0.0 | 0.00 | 0.00 | 0.00 | 82 | |
| 20260905042945 | 66 | 267 | 0.0 | 0.0 | 0.00 | 0.00 | 0.00 | 82 | |
| 20260905042743 | 67 | 267 | 0.0 | 0.0 | 0.00 | 0.00 | 0.00 | 82 | |
| 20260905042541 | 67 | 267 | 0.0 | 0.0 | 0.00 | 0.00 | 0.00 | 82 | |
| 20260905042339 | 67 | 267 | 0.0 | 0.0 | 0.00 | 0.00 | 0.00 | 82 | |
| 20260905041935 | 67 | 267 | 0.0 | 0.0 | 0.00 | 0.00 | 0.00 | 82 | |
| 20260905041733 | 67 | 267 | 0.0 | 0.0 | 0.00 | 0.00 | 0.00 | 81 | |
| 20260905041330 | 67 | 267 | 0.0 | 0.0 | 0.00 | 0.00 | 0.00 | 81 | |
| 20260905041129 | 67 | 267 | 0.0 | 0.0 | 0.00 | 0.00 | 0.00 | 82 | |
| 20260905040926 | 67 | 267 | 0.0 | 0.0 | 0.00 | 0.00 | 0.00 | 82 | |
| 20260905040725 | 67 | 267 | 0.0 | 0.0 | 0.00 | 0.00 | 0.00 | 82 | |
| 20260905040522 | 67 | 267 | 0.0 | 0.0 | 0.00 | 0.00 | 0.00 | 81 | |
| 20260905040118 | 68 | 267 | 0.0 | 0.0 | 0.00 | 0.00 | 0.00 | 81 | |
| 20260905035916 | 68 | 267 | 0.0 | 0.0 | 0.00 | 0.00 | 0.00 | 81 | |
| 20260905035714 | 68 | 267 | 0.0 | 0.0 | 0.00 | 0.00 | 0.00 | 81 | |
| 20260905035512 | 68 | 267 | 0.0 | 0.0 | 0.00 | 0.00 | 0.00 | 81 | |
| 20260905035311 | 68 | 267 | 0.0 | 0.0 | 0.00 | 0.00 | 0.00 | 81 | |
| 20260905035109 | 68 | 267 | 0.0 | 0.0 | 0.00 | 0.00 | 0.00 | 80 | |
| 20260905034907 | 68 | 267 | 0.0 | 0.0 | 0.00 | 0.00 | 0.00 | 80 | |
| 20260905034705 | 68 | 267 | 0.0 | 1.7 | 0.00 | 0.00 | 0.00 | 80 | |
| 20260905034505 | 68 | 267 | 0.0 | 1.7 | 0.00 | 0.00 | 0.00 | 80 | |
| 20260905034306 | 68 | 267 | 0.0 | 1.7 | 0.00 | 0.00 | 0.00 | 80 | |
| 20260905034301 | 68 | 267 | 0.0 | 1.7 | 0.00 | 0.00 | 0.00 | 80 | |
| 20260905034059 | 68 | 267 | 0.0 | 1.7 | 0.00 | 0.00 | 0.00 | 80 | |
| 20260905033857 | 68 | 279 | 0.9 | 1.7 | 0.00 | 0.00 | 0.00 | 80 | |
| 20260905033655 | 68 | 282 | 0.9 | 0.9 | 0.00 | 0.00 | 0.00 | 80 | |
| 20260905033453 | 68 | 260 | 0.0 | 0.9 | 0.00 | 0.00 | 0.00 | 79 | |
| 20260905033252 | 68 | 260 | 0.0 | 0.9 | 0.00 | 0.00 | 0.00 | 79 | |
| 20260905033050 | 68 | 275 | 0.0 | 2.6 | 0.00 | 0.00 | 0.00 | 79 | |
| 20260905032848 | 68 | 275 | 0.0 | 2.6 | 0.00 | 0.00 | 0.00 | 79 | |
| 20260905032444 | 68 | 275 | 0.0 | 2.6 | 0.00 | 0.00 | 0.00 | 79 | |
| 20260905032242 | 68 | 299 | 0.9 | 2.6 | 0.00 | 0.00 | 0.00 | 79 | |
| 20260905032040 | 68 | 292 | 2.6 | 2.6 | 0.00 | 0.00 | 0.00 | 79 | |
| 20260905031838 | 69 | 300 | 1.7 | 2.6 | 0.00 | 0.00 | 0.00 | 78 | |
| 20260905031636 | 69 | 305 | 1.7 | 4.3 | 0.00 | 0.00 | 0.00 | 78 | |
| 20260905031434 | 69 | 289 | 0.9 | 4.3 | 0.00 | 0.00 | 0.00 | 78 | |
| 20260905031232 | 69 | 284 | 1.7 | 5.2 | 0.00 | 0.00 | 0.00 | 78 | |
| 20260905031031 | 69 | 279 | 2.6 | 5.2 | 0.00 | 0.00 | 0.00 | 78 | |
| 20260905030949 | 69 | 281 | 1.7 | 5.2 | 0.00 | 0.00 | 0.00 | 77 | |
| 20260905030829 | 69 | 281 | 1.7 | 5.2 | 0.00 | 0.00 | 0.00 | 77 | |
| 20260905030627 | 69 | 295 | 2.6 | 4.3 | 0.00 | 0.00 | 0.00 | 77 | |
| 20260905030425 | 69 | 295 | 3.5 | 4.3 | 0.00 | 0.00 | 0.00 | 77 | |
| 20260905030223 | 69 | 302 | 1.7 | 4.3 | 0.00 | 0.00 | 0.00 | 77 | |
| 20260905030021 | 69 | 274 | 3.5 | 4.3 | 0.00 | 0.00 | 0.00 | 76 | |
| 20260905025819 | 69 | 288 | 2.6 | 4.3 | 0.00 | 0.00 | 0.00 | 76 | |
| 20260905025740 | 69 | 292 | 3.5 | 5.2 | 0.00 | 0.00 | 0.00 | 75 | |
| 20260905025617 | 69 | 288 | 2.6 | 5.2 | 0.00 | 0.00 | 0.00 | 76 | |
| 20260905025415 | 69 | 292 | 3.5 | 5.2 | 0.00 | 0.00 | 0.00 | 75 | |
| 20260905025213 | 69 | 289 | 3.5 | 3.5 | 0.00 | 0.00 | 0.00 | 75 | |
| 20260905025011 | 69 | 281 | 2.6 | 3.5 | 0.00 | 0.00 | 0.00 | 75 | |
| 20260905024809 | 70 | 289 | 3.5 | 3.5 | 0.00 | 0.00 | 0.00 | 74 | |
| 20260905024607 | 70 | 286 | 1.7 | 4.3 | 0.00 | 0.00 | 0.00 | 74 | |
| 20260905024405 | 70 | 286 | 3.5 | 4.3 | 0.00 | 0.00 | 0.00 | 73 | |
| 20260905024203 | 70 | 295 | 2.6 | 4.3 | 0.00 | 0.00 | 0.00 | 73 | |
| 20260905023759 | 70 | 281 | 1.7 | 4.3 | 0.00 | 0.00 | 0.00 | 72 | |
| 20260905023557 | 70 | 279 | 1.7 | 2.6 | 0.00 | 0.00 | 0.00 | 71 | |
| 20260905023356 | 71 | 278 | 1.7 | 2.6 | 0.00 | 0.00 | 0.00 | 70 | |
| 20260905023154 | 71 | 279 | 0.0 | 6.1 | 0.00 | 0.00 | 0.00 | 70 | |
| 20260905022952 | 71 | 240 | 0.9 | 6.1 | 0.00 | 0.00 | 0.00 | 70 | |
| 20260905022548 | 71 | 272 | 0.9 | 7.0 | 0.00 | 0.00 | 0.00 | 69 | |
| 20260905022345 | 71 | 271 | 3.5 | 7.0 | 0.00 | 0.00 | 0.00 | 69 | |
| 20260905022143 | 71 | 291 | 1.7 | 6.1 | 0.00 | 0.00 | 0.00 | 69 | |
| 20260905021941 | 71 | 271 | 4.3 | 6.1 | 0.00 | 0.00 | 0.00 | 69 | |
| 20260905021740 | 71 | 260 | 5.2 | 6.1 | 0.00 | 0.00 | 0.00 | 68 | |
| 20260905021538 | 72 | 260 | 2.6 | 6.1 | 0.00 | 0.00 | 0.00 | 67 | |
| 20260905021336 | 72 | 286 | 1.7 | 6.1 | 0.00 | 0.00 | 0.00 | 67 | |
| 20260905021134 | 72 | 264 | 5.2 | 6.1 | 0.00 | 0.00 | 0.00 | 67 | |
| 20260905020932 | 72 | 282 | 3.5 | 6.1 | 0.00 | 0.00 | 0.00 | 67 | |
| 20260905020530 | 72 | 295 | 3.5 | 7.0 | 0.00 | 0.00 | 0.00 | 66 | |
| 20260905020125 | 72 | 291 | 2.6 | 8.7 | 0.00 | 0.00 | 0.00 | 65 | |
| 20260905015923 | 72 | 281 | 4.3 | 8.7 | 0.00 | 0.00 | 0.00 | 65 | |
| 20260905015720 | 73 | 258 | 8.7 | 7.8 | 0.00 | 0.00 | 0.00 | 65 | |
| 20260905015519 | 73 | 274 | 7.0 | 7.8 | 0.00 | 0.00 | 0.00 | 65 | |
| 20260905015316 | 73 | 272 | 6.1 | 7.8 | 0.00 | 0.00 | 0.00 | 64 | |
| 20260905015114 | 73 | 262 | 3.5 | 8.7 | 0.00 | 0.00 | 0.00 | 65 | |
| 20260905014912 | 73 | 291 | 4.3 | 8.7 | 0.00 | 0.00 | 0.00 | 65 | |
| 20260905014710 | 73 | 270 | 4.3 | 8.7 | 0.00 | 0.00 | 0.00 | 65 | |
| 20260905014306 | 74 | 265 | 7.0 | 8.7 | 0.00 | 0.00 | 0.00 | 63 | |
| 20260905014106 | 74 | 281 | 4.3 | 7.0 | 0.00 | 0.00 | 0.00 | 63 | |
| 20260905013904 | 74 | 275 | 6.1 | 7.0 | 0.00 | 0.00 | 0.00 | 63 | |
| 20260905013500 | 74 | 281 | 5.2 | 9.6 | 0.00 | 0.00 | 0.00 | 63 | |
| 20260905013258 | 74 | 254 | 5.2 | 9.6 | 0.00 | 0.00 | 0.00 | 62 | |
| 20260905013056 | 74 | 279 | 9.6 | 8.7 | 0.00 | 0.00 | 0.00 | 62 | |
| 20260905012854 | 74 | 258 | 4.3 | 8.7 | 0.00 | 0.00 | 0.00 | 62 | |
| 20260905012651 | 74 | 254 | 5.2 | 8.7 | 0.00 | 0.00 | 0.00 | 62 | |
| 20260905012451 | 74 | 267 | 7.8 | 8.7 | 0.00 | 0.00 | 0.00 | 62 | |
| 20260905011843 | 75 | 268 | 5.2 | 7.8 | 0.00 | 0.00 | 0.00 | 62 | |
| 20260905011641 | 75 | 248 | 2.6 | 9.6 | 0.00 | 0.00 | 0.00 | 62 | |
| 20260905011035 | 75 | 275 | 6.1 | 9.6 | 0.00 | 0.00 | 0.00 | 62 | |
| 20260905010835 | 75 | 216 | 0.9 | 9.6 | 0.00 | 0.00 | 0.00 | 63 | |
| 20260905010631 | 75 | 267 | 4.3 | 9.6 | 0.00 | 0.00 | 0.00 | 63 | |
| 20260905010429 | 75 | 226 | 4.3 | 9.6 | 0.00 | 0.00 | 0.00 | 63 | |
| 20260905010025 | 75 | 250 | 5.2 | 8.7 | 0.00 | 0.00 | 0.00 | 62 | |
| 20260905005823 | 75 | 264 | 3.5 | 8.7 | 0.00 | 0.00 | 0.00 | 62 | |
| 20260905005623 | 75 | 240 | 3.5 | 9.6 | 0.00 | 0.00 | 0.00 | 62 | |
| 20260905005217 | 75 | 272 | 7.0 | 9.6 | 0.00 | 0.00 | 0.00 | 62 | |
| 20260905005015 | 75 | 281 | 3.5 | 9.6 | 0.00 | 0.00 | 0.00 | 62 | |
| 20260905004813 | 75 | 277 | 2.6 | 9.6 | 0.00 | 0.00 | 0.00 | 62 | |
| 20260905004613 | 75 | 274 | 6.1 | 12.2 | 0.00 | 0.00 | 0.00 | 62 | |
| 20260905004409 | 75 | 250 | 4.3 | 12.2 | 0.00 | 0.00 | 0.00 | 62 | |
| 20260905004207 | 76 | 265 | 8.7 | 7.0 | 0.00 | 0.00 | 0.00 | 61 | |
| 20260905003805 | 76 | 292 | 7.0 | 7.0 | 0.00 | 0.00 | 0.00 | 60 | |
| 20260905003601 | 76 | 189 | 0.9 | 9.6 | 0.00 | 0.00 | 0.00 | 60 | |
| 20260905003401 | 76 | 253 | 2.6 | 9.6 | 0.00 | 0.00 | 0.00 | 60 | |
| 20260905003158 | 76 | 284 | 4.3 | 13.0 | 0.00 | 0.00 | 0.00 | 61 | |
| 20260905002956 | 76 | 244 | 0.9 | 13.0 | 0.00 | 0.00 | 0.00 | 60 | |
| 20260905002754 | 76 | 226 | 2.6 | 13.0 | 0.00 | 0.00 | 0.00 | 60 | |
| 20260905002553 | 76 | 255 | 6.1 | 10.4 | 0.00 | 0.00 | 0.00 | 61 | |
| 20260905002350 | 76 | 264 | 7.0 | 10.4 | 0.00 | 0.00 | 0.00 | 60 | |
| 20260905002148 | 76 | 247 | 6.1 | 11.3 | 0.00 | 0.00 | 0.00 | 60 | |
| 20260905001948 | 76 | 268 | 5.2 | 11.3 | 0.00 | 0.00 | 0.00 | 60 | |
| 20260905001744 | 76 | 247 | 5.2 | 12.2 | 0.00 | 0.00 | 0.00 | 60 | |
| 20260905001542 | 76 | 296 | 3.5 | 12.2 | 0.00 | 0.00 | 0.00 | 61 | |
| 20260905001342 | 76 | 246 | 6.1 | 12.2 | 0.00 | 0.00 | 0.00 | 61 | |
| 20260905001138 | 76 | 270 | 7.0 | 11.3 | 0.00 | 0.00 | 0.00 | 60 | |
| 20260905000937 | 76 | 255 | 5.2 | 11.3 | 0.00 | 0.00 | 0.00 | 60 | |
| 20260905000735 | 76 | 270 | 9.6 | 12.2 | 0.00 | 0.00 | 0.00 | 59 | |
| 20260905000533 | 77 | 271 | 3.5 | 12.2 | 0.00 | 0.00 | 0.00 | 58 | |
| 20260905000332 | 77 | 254 | 4.3 | 12.2 | 0.00 | 0.00 | 0.00 | 59 | |
| 20260905000128 | 77 | 244 | 7.8 | 12.2 | 0.00 | 0.00 | 0.00 | 58 | |
| 20260904235927 | 77 | 272 | 6.1 | 12.2 | 0.00 | 0.00 | 0.00 | 59 | |
| 20260904235724 | 77 | 265 | 3.5 | 11.3 | 0.00 | 0.00 | 0.00 | 58 | |
| 20260904235524 | 77 | 258 | 10.4 | 11.3 | 0.00 | 0.00 | 0.00 | 56 | |
| 20260904235322 | 77 | 272 | 3.5 | 11.3 | 0.00 | 0.00 | 0.00 | 58 | |
| 20260904235118 | 77 | 250 | 11.3 | 9.6 | 0.00 | 0.00 | 0.00 | 57 | |
| 20260904234916 | 77 | 302 | 5.2 | 9.6 | 0.00 | 0.00 | 0.00 | 57 | |
| 20260904234514 | 78 | 250 | 8.7 | 11.3 | 0.00 | 0.00 | 0.00 | 57 | |
| 20260904234312 | 77 | 250 | 0.9 | 11.3 | 0.00 | 0.00 | 0.00 | 56 | |
| 20260904234110 | 77 | 261 | 6.1 | 11.3 | 0.00 | 0.00 | 0.00 | 57 | |
| 20260904233907 | 77 | 265 | 7.0 | 11.3 | 0.00 | 0.00 | 0.00 | 57 | |
| 20260904233505 | 77 | 225 | 7.0 | 9.6 | 0.00 | 0.00 | 0.00 | 56 | |
| 20260904233342 | 78 | 271 | 4.3 | 9.6 | 0.00 | 0.00 | 0.00 | 55 | |
| 20260904233302 | 78 | 271 | 4.3 | 9.6 | 0.00 | 0.00 | 0.00 | 55 | |
| 20260904233100 | 77 | 253 | 6.1 | 13.0 | 0.00 | 0.00 | 0.00 | 56 | |
| 20260904232858 | 77 | 161 | 0.9 | 13.0 | 0.00 | 0.00 | 0.00 | 56 | |
| 20260904232655 | 78 | 262 | 8.7 | 11.3 | 0.00 | 0.00 | 0.00 | 55 | |
| 20260904232454 | 78 | 275 | 3.5 | 11.3 | 0.00 | 0.00 | 0.00 | 54 | |
| 20260904232050 | 78 | 270 | 5.2 | 11.3 | 0.00 | 0.00 | 0.00 | 54 | |
| 20260904231847 | 78 | 260 | 7.0 | 11.3 | 0.00 | 0.00 | 0.00 | 51 | |
| 20260904231645 | 78 | 281 | 3.5 | 15.6 | 0.00 | 0.00 | 0.00 | 54 | |
| 20260904231445 | 78 | 260 | 4.3 | 15.6 | 0.00 | 0.00 | 0.00 | 53 | |
| 20260904231243 | 77 | 255 | 4.3 | 13.9 | 0.00 | 0.00 | 0.00 | 54 | |
| 20260904231041 | 77 | 300 | 7.0 | 13.9 | 0.00 | 0.00 | 0.00 | 54 | |
| 20260904230837 | 77 | 255 | 6.1 | 13.9 | 0.00 | 0.00 | 0.00 | 54 | |
| 20260904230635 | 78 | 253 | 13.0 | 13.9 | 0.00 | 0.00 | 0.00 | 54 | |
| 20260904230435 | 78 | 288 | 4.3 | 13.9 | 0.00 | 0.00 | 0.00 | 52 | |
| 20260904230233 | 78 | 255 | 6.1 | 13.0 | 0.00 | 0.00 | 0.00 | 53 | |
| 20260904230029 | 78 | 262 | 8.7 | 13.0 | 0.00 | 0.00 | 0.00 | 54 | |
| 20260904225829 | 77 | 268 | 10.4 | 13.0 | 0.00 | 0.00 | 0.00 | 53 | |
| 20260904225625 | 78 | 239 | 8.7 | 13.9 | 0.00 | 0.00 | 0.00 | 54 | |
| 20260904225425 | 78 | 277 | 7.0 | 13.9 | 0.00 | 0.00 | 0.00 | 53 | |
| 20260904225021 | 78 | 246 | 7.0 | 13.9 | 0.00 | 0.00 | 0.00 | 54 | |
| 20260904224819 | 78 | 265 | 7.8 | 13.9 | 0.00 | 0.00 | 0.00 | 54 | |
| 20260904224615 | 77 | 248 | 7.0 | 15.6 | 0.00 | 0.00 | 0.00 | 53 | |
| 20260904224415 | 77 | 255 | 9.6 | 15.6 | 0.00 | 0.00 | 0.00 | 55 | |
| 20260904224213 | 77 | 265 | 7.8 | 16.5 | 0.00 | 0.00 | 0.00 | 56 | |
| 20260904224009 | 77 | 257 | 11.3 | 16.5 | 0.00 | 0.00 | 0.00 | 57 | |
| 20260904223809 | 77 | 282 | 8.7 | 16.5 | 0.00 | 0.00 | 0.00 | 56 | |
| 20260904223607 | 77 | 253 | 9.6 | 15.6 | 0.00 | 0.00 | 0.00 | 55 | |
| 20260904223404 | 77 | 274 | 12.2 | 15.6 | 0.00 | 0.00 | 0.00 | 56 | |
| 20260904223204 | 77 | 241 | 9.6 | 16.5 | 0.00 | 0.00 | 0.00 | 56 | |
| 20260904223000 | 77 | 254 | 8.7 | 16.5 | 0.00 | 0.00 | 0.00 | 57 | |
| 20260904222800 | 77 | 275 | 13.0 | 16.5 | 0.00 | 0.00 | 0.00 | 57 | |
| 20260904222556 | 77 | 262 | 15.6 | 13.0 | 0.00 | 0.00 | 0.00 | 57 | |
| 20260904222355 | 77 | 296 | 9.6 | 13.0 | 0.00 | 0.00 | 0.00 | 56 | |
| 20260904222153 | 78 | 267 | 9.6 | 14.8 | 0.00 | 0.00 | 0.00 | 54 | |
| 20260904221952 | 78 | 293 | 3.5 | 14.8 | 0.00 | 0.00 | 0.00 | 55 | |
| 20260904221750 | 78 | 260 | 6.1 | 14.8 | 0.00 | 0.00 | 0.00 | 55 | |
| 20260904221548 | 78 | 267 | 8.7 | 13.0 | 0.00 | 0.00 | 0.00 | 56 | |
| 20260904221346 | 79 | 270 | 8.7 | 13.0 | 0.00 | 0.00 | 0.00 | 55 | |
| 20260904221144 | 79 | 253 | 11.3 | 14.8 | 0.00 | 0.00 | 0.00 | 54 | |
| 20260904220941 | 79 | 232 | 8.7 | 14.8 | 0.00 | 0.00 | 0.00 | 55 | |
| 20260904220740 | 79 | 277 | 10.4 | 12.2 | 0.00 | 0.00 | 0.00 | 55 | |
| 20260904220538 | 78 | 244 | 9.6 | 12.2 | 0.00 | 0.00 | 0.00 | 55 | |
| 20260904220334 | 79 | 272 | 9.6 | 12.2 | 0.00 | 0.00 | 0.00 | 55 | |
| 20260904220132 | 79 | 258 | 9.6 | 15.6 | 0.00 | 0.00 | 0.00 | 55 | |
| 20260904215124 | 78 | 262 | 11.3 | 13.9 | 0.00 | 0.00 | 0.00 | 55 | |
| 20260904214922 | 79 | 264 | 7.8 | 13.9 | 0.00 | 0.00 | 0.00 | 55 | |
| 20260904214719 | 79 | 247 | 8.7 | 14.8 | 0.00 | 0.00 | 0.00 | 54 | |
| 20260904214517 | 80 | 268 | 8.7 | 14.8 | 0.00 | 0.00 | 0.00 | 53 | |
| 20260904214316 | 80 | 246 | 7.8 | 14.8 | 0.00 | 0.00 | 0.00 | 53 | |
| 20260904214113 | 80 | 272 | 9.6 | 13.9 | 0.00 | 0.00 | 0.00 | 53 | |
| 20260904213912 | 80 | 250 | 8.7 | 13.9 | 0.00 | 0.00 | 0.00 | 53 | |
| 20260904213710 | 80 | 260 | 9.6 | 14.8 | 0.00 | 0.00 | 0.00 | 52 | |
| 20260904213306 | 80 | 241 | 7.0 | 14.8 | 0.00 | 0.00 | 0.00 | 52 | |
| 20260904213104 | 80 | 247 | 9.6 | 13.9 | 0.00 | 0.00 | 0.00 | 51 | |
| 20260904212902 | 80 | 254 | 7.8 | 13.9 | 0.00 | 0.00 | 0.00 | 51 | |
| 20260904212701 | 80 | 240 | 7.8 | 13.0 | 0.00 | 0.00 | 0.00 | 51 | |
| 20260904212458 | 80 | 262 | 8.7 | 13.0 | 0.00 | 0.00 | 0.00 | 49 | |
| 20260904212257 | 81 | 272 | 2.6 | 13.0 | 0.00 | 0.00 | 0.00 | 49 | |
| 20260904211852 | 81 | 274 | 6.1 | 13.9 | 0.00 | 0.00 | 0.00 | 50 | |
| 20260904211651 | 81 | 262 | 12.2 | 11.3 | 0.00 | 0.00 | 0.00 | 49 | |
| 20260904211449 | 81 | 279 | 6.1 | 11.3 | 0.00 | 0.00 | 0.00 | 49 | |
| 20260904211247 | 81 | 261 | 13.9 | 11.3 | 0.00 | 0.00 | 0.00 | 48 | |
| 20260904211045 | 81 | 268 | 5.2 | 14.8 | 0.00 | 0.00 | 0.00 | 47 | |
| 20260904210843 | 81 | 157 | 0.9 | 14.8 | 0.00 | 0.00 | 0.00 | 48 | |
| 20260904210237 | 81 | 271 | 9.6 | 13.9 | 0.00 | 0.00 | 0.00 | 48 | |
| 20260904210035 | 82 | 234 | 8.7 | 13.9 | 0.00 | 0.00 | 0.00 | 46 | |
| 20260904205834 | 82 | 268 | 6.1 | 13.9 | 0.00 | 0.00 | 0.00 | 46 | |
| 20260904205429 | 82 | 262 | 6.1 | 13.9 | 0.00 | 0.00 | 0.00 | 45 | |
| 20260904205227 | 81 | 271 | 3.5 | 14.8 | 0.00 | 0.00 | 0.00 | 45 | |
| 20260904205025 | 81 | 247 | 5.2 | 14.8 | 0.00 | 0.00 | 0.00 | 46 | |
| 20260904204824 | 81 | 271 | 7.8 | 14.8 | 0.00 | 0.00 | 0.00 | 44 | |
| 20260904204622 | 81 | 254 | 6.1 | 13.0 | 0.00 | 0.00 | 0.00 | 45 | |
| 20260904204420 | 81 | 272 | 5.2 | 13.0 | 0.00 | 0.00 | 0.00 | 45 | |
| 20260904204217 | 81 | 286 | 5.2 | 10.4 | 0.00 | 0.00 | 0.00 | 45 | |
| 20260904204016 | 81 | 244 | 1.7 | 10.4 | 0.00 | 0.00 | 0.00 | 45 | |
| 20260904203814 | 81 | 279 | 5.2 | 10.4 | 0.00 | 0.00 | 0.00 | 44 | |
| 20260904203612 | 81 | 268 | 7.0 | 12.2 | 0.00 | 0.00 | 0.00 | 45 | |
| 20260904203410 | 81 | 300 | 6.1 | 12.2 | 0.00 | 0.00 | 0.00 | 44 | |
| 20260904203208 | 81 | 261 | 8.7 | 12.2 | 0.00 | 0.00 | 0.00 | 43 | |
| 20260904202804 | 82 | 261 | 8.7 | 12.2 | 0.00 | 0.00 | 0.00 | 41 | |
| 20260904202602 | 81 | 285 | 1.7 | 11.3 | 0.00 | 0.00 | 0.00 | 43 | |
| 20260904202400 | 81 | 272 | 8.7 | 11.3 | 0.00 | 0.00 | 0.00 | 43 | |
| 20260904202158 | 81 | 277 | 7.8 | 13.0 | 0.00 | 0.00 | 0.00 | 43 | |
| 20260904201956 | 81 | 277 | 6.1 | 13.0 | 0.00 | 0.00 | 0.00 | 43 | |
| 20260904201754 | 81 | 240 | 6.1 | 13.0 | 0.00 | 0.00 | 0.00 | 43 | |
| 20260904201553 | 80 | 271 | 8.7 | 11.3 | 0.00 | 0.00 | 0.00 | 44 | |
| 20260904201350 | 81 | 289 | 3.5 | 11.3 | 0.00 | 0.00 | 0.00 | 44 | |
| 20260904201148 | 80 | 291 | 4.3 | 11.3 | 0.00 | 0.00 | 0.00 | 44 | |
| 20260904200946 | 81 | 277 | 7.8 | 11.3 | 0.00 | 0.00 | 0.00 | 44 | |
| 20260904200745 | 81 | 285 | 6.1 | 11.3 | 0.00 | 0.00 | 0.00 | 43 | |
| 20260904200542 | 81 | 278 | 7.0 | 11.3 | 0.00 | 0.00 | 0.00 | 43 | |
| 20260904200339 | 81 | 251 | 6.1 | 11.3 | 0.00 | 0.00 | 0.00 | 42 | |
| 20260904200137 | 81 | 291 | 3.5 | 7.8 | 0.00 | 0.00 | 0.00 | 42 | |
| 20260904195531 | 82 | 281 | 4.3 | 8.7 | 0.00 | 0.00 | 0.00 | 40 | |
| 20260904195329 | 83 | 258 | 4.3 | 8.7 | 0.00 | 0.00 | 0.00 | 40 | |
| 20260904195127 | 83 | 320 | 0.9 | 4.3 | 0.00 | 0.00 | 0.00 | 39 | |
| 20260904194927 | 83 | 146 | 0.0 | 4.3 | 0.00 | 0.00 | 0.00 | 39 | |
| 20260904194725 | 82 | 52 | 0.0 | 5.2 | 0.00 | 0.00 | 0.00 | 41 | |
| 20260904194521 | 82 | 171 | 0.0 | 5.2 | 0.00 | 0.00 | 0.00 | 40 | |
| 20260904194321 | 82 | 260 | 0.9 | 5.2 | 0.00 | 0.00 | 0.00 | 39 | |
| 20260904194119 | 82 | 213 | 2.6 | 7.0 | 0.00 | 0.00 | 0.00 | 40 | |
| 20260904193916 | 82 | 156 | 0.9 | 7.0 | 0.00 | 0.00 | 0.00 | 40 | |
| 20260904193716 | 82 | 226 | 2.6 | 6.1 | 0.00 | 0.00 | 0.00 | 41 | |
| 20260904193513 | 81 | 174 | 0.9 | 6.1 | 0.00 | 0.00 | 0.00 | 41 | |
| 20260904193110 | 81 | 205 | 1.7 | 4.3 | 0.00 | 0.00 | 0.00 | 41 | |
| 20260904192905 | 81 | 309 | 0.0 | 4.3 | 0.00 | 0.00 | 0.00 | 41 | |
| 20260904192705 | 81 | 275 | 3.5 | 5.2 | 0.00 | 0.00 | 0.00 | 40 | |
| 20260904192504 | 82 | 306 | 0.0 | 5.2 | 0.00 | 0.00 | 0.00 | 39 | |
| 20260904192300 | 82 | 285 | 3.5 | 5.2 | 0.00 | 0.00 | 0.00 | 39 | |
| 20260904192058 | 82 | 106 | 0.0 | 3.5 | 0.00 | 0.00 | 0.00 | 40 | |
| 20260904191856 | 82 | 284 | 0.0 | 3.5 | 0.00 | 0.00 | 0.00 | 40 | |
| 20260904191654 | 82 | 284 | 0.0 | 6.1 | 0.00 | 0.00 | 0.00 | 41 | |
| 20260904191453 | 82 | 119 | 0.0 | 6.1 | 0.00 | 0.00 | 0.00 | 41 | |
| 20260904191252 | 82 | 143 | 3.5 | 6.1 | 0.00 | 0.00 | 0.00 | 40 | |
| 20260904191049 | 82 | 161 | 2.6 | 5.2 | 0.00 | 0.00 | 0.00 | 40 | |
| 20260904190847 | 82 | 199 | 4.3 | 5.2 | 0.00 | 0.00 | 0.00 | 39 | |
| 20260904190646 | 82 | 156 | 1.7 | 2.6 | 0.00 | 0.00 | 0.00 | 41 | |
| 20260904190240 | 81 | 278 | 0.0 | 3.5 | 0.00 | 0.00 | 0.00 | 43 | |
| 20260904190040 | 80 | 278 | 0.0 | 3.5 | 0.00 | 0.00 | 0.00 | 44 | |
| 20260904185838 | 80 | 59 | 0.0 | 3.5 | 0.00 | 0.00 | 0.00 | 45 | |
| 20260904185634 | 79 | 257 | 0.9 | 4.3 | 0.00 | 0.00 | 0.00 | 46 | |
| 20260904185432 | 79 | 250 | 0.0 | 4.3 | 0.00 | 0.00 | 0.00 | 47 | |
| 20260904185230 | 78 | 195 | 0.0 | 7.0 | 0.00 | 0.00 | 0.00 | 47 | |
| 20260904185028 | 78 | 324 | 0.0 | 7.0 | 0.00 | 0.00 | 0.00 | 48 | |
| 20260904184828 | 77 | 305 | 1.7 | 7.0 | 0.00 | 0.00 | 0.00 | 48 | |
| 20260904184624 | 77 | 261 | 4.3 | 4.3 | 0.00 | 0.00 | 0.00 | 48 | |
| 20260904184422 | 77 | 285 | 1.7 | 4.3 | 0.00 | 0.00 | 0.00 | 49 | |
| 20260904184222 | 77 | 295 | 0.9 | 7.0 | 0.00 | 0.00 | 0.00 | 49 | |
| 20260904184020 | 77 | 257 | 1.7 | 7.0 | 0.00 | 0.00 | 0.00 | 50 | |
| 20260904183816 | 77 | 257 | 1.7 | 7.0 | 0.00 | 0.00 | 0.00 | 49 | |
| 20260904183614 | 77 | 288 | 3.5 | 6.1 | 0.00 | 0.00 | 0.00 | 49 | |
| 20260904183412 | 77 | 316 | 4.3 | 6.1 | 0.00 | 0.00 | 0.00 | 49 | |
| 20260904183210 | 77 | 315 | 0.9 | 9.6 | 0.00 | 0.00 | 0.00 | 49 | |
| 20260904183010 | 77 | 232 | 1.7 | 9.6 | 0.00 | 0.00 | 0.00 | 49 | |
| 20260904182806 | 77 | 233 | 3.5 | 9.6 | 0.00 | 0.00 | 0.00 | 50 | |
| 20260904182604 | 77 | 275 | 7.0 | 7.0 | 0.00 | 0.00 | 0.00 | 52 | |
| 20260904182403 | 76 | 292 | 0.0 | 7.0 | 0.00 | 0.00 | 0.00 | 52 | |
| 20260904182203 | 76 | 324 | 0.0 | 6.1 | 0.00 | 0.00 | 0.00 | 52 | |
| 20260904182000 | 76 | 317 | 4.3 | 6.1 | 0.00 | 0.00 | 0.00 | 52 | |
| 20260904181759 | 76 | 285 | 4.3 | 6.1 | 0.00 | 0.00 | 0.00 | 51 | |
| 20260904181555 | 76 | 320 | 0.0 | 7.0 | 0.00 | 0.00 | 0.00 | 52 | |
| 20260904181354 | 76 | 277 | 0.9 | 7.0 | 0.00 | 0.00 | 0.00 | 52 | |
| 20260904181151 | 76 | 264 | 3.5 | 8.7 | 0.00 | 0.00 | 0.00 | 53 | |
| 20260904180949 | 75 | 286 | 2.6 | 8.7 | 0.00 | 0.00 | 0.00 | 53 | |
| 20260904180747 | 75 | 262 | 0.0 | 8.7 | 0.00 | 0.00 | 0.00 | 54 | |
| 20260904180545 | 75 | 309 | 2.6 | 6.1 | 0.00 | 0.00 | 0.00 | 54 | |
| 20260904180343 | 75 | 277 | 7.8 | 6.1 | 0.00 | 0.00 | 0.00 | 53 | |
| 20260904180142 | 75 | 279 | 1.7 | 7.8 | 0.00 | 0.00 | 0.00 | 54 | |
| 20260904175939 | 75 | 282 | 4.3 | 7.8 | 0.00 | 0.00 | 0.00 | 54 | |
| 20260904175737 | 75 | 268 | 4.3 | 7.0 | 0.00 | 0.00 | 0.00 | 54 | |
| 20260904175537 | 76 | 260 | 6.1 | 7.0 | 0.00 | 0.00 | 0.00 | 54 | |
| 20260904175335 | 75 | 277 | 4.3 | 7.0 | 0.00 | 0.00 | 0.00 | 52 | |
| 20260904175132 | 77 | 265 | 6.1 | 4.3 | 0.00 | 0.00 | 0.00 | 51 | |
| 20260904174931 | 77 | 277 | 3.5 | 4.3 | 0.00 | 0.00 | 0.00 | 52 | |
| 20260904174729 | 77 | 132 | 0.9 | 1.7 | 0.00 | 0.00 | 0.00 | 53 | |
| 20260904174527 | 76 | 46 | 0.0 | 1.7 | 0.00 | 0.00 | 0.00 | 53 | |
| 20260904174325 | 76 | 87 | 1.7 | 1.7 | 0.00 | 0.00 | 0.00 | 54 | |
| 20260904174123 | 75 | 102 | 0.0 | 2.6 | 0.00 | 0.00 | 0.00 | 56 | |
| 20260904173919 | 75 | 239 | 0.0 | 2.6 | 0.00 | 0.00 | 0.00 | 56 | |
| 20260904173717 | 75 | 239 | 0.0 | 4.3 | 0.00 | 0.00 | 0.00 | 56 | |
| 20260904173517 | 75 | 270 | 0.0 | 4.3 | 0.00 | 0.00 | 0.00 | 55 | |
| 20260904173313 | 75 | 295 | 0.9 | 4.3 | 0.00 | 0.00 | 0.00 | 53 | |
| 20260904173111 | 75 | 299 | 3.5 | 5.2 | 0.00 | 0.00 | 0.00 | 52 | |
| 20260904172909 | 75 | 303 | 1.7 | 5.2 | 0.00 | 0.00 | 0.00 | 52 | |
| 20260904172707 | 76 | 309 | 0.0 | 6.1 | 0.00 | 0.00 | 0.00 | 51 | |
| 20260904172506 | 75 | 309 | 0.0 | 6.1 | 0.00 | 0.00 | 0.00 | 52 | |
| 20260904172305 | 75 | 87 | 3.5 | 6.1 | 0.00 | 0.00 | 0.00 | 54 | |
| 20260904172102 | 75 | 135 | 1.7 | 5.2 | 0.00 | 0.00 | 0.00 | 55 | |
| 20260904171900 | 75 | 147 | 1.7 | 5.2 | 0.00 | 0.00 | 0.00 | 55 | |
| 20260904171658 | 75 | 216 | 1.7 | 5.2 | 0.00 | 0.00 | 0.00 | 55 | |
| 20260904171456 | 75 | 156 | 0.0 | 5.2 | 0.00 | 0.00 | 0.00 | 57 | |
| 20260904171254 | 75 | 53 | 0.0 | 5.2 | 0.00 | 0.00 | 0.00 | 57 | |
| 20260904171052 | 74 | 64 | 0.9 | 2.6 | 0.00 | 0.00 | 0.00 | 58 | |
| 20260904170850 | 74 | 71 | 0.0 | 2.6 | 0.00 | 0.00 | 0.00 | 59 | |
| 20260904170648 | 74 | 293 | 0.0 | 5.2 | 0.00 | 0.00 | 0.00 | 57 | |
| 20260904170446 | 75 | 277 | 0.9 | 5.2 | 0.00 | 0.00 | 0.00 | 56 | |
| 20260904170244 | 75 | 112 | 0.9 | 4.3 | 0.00 | 0.00 | 0.00 | 57 | |
| 20260904170042 | 75 | 181 | 1.7 | 4.3 | 0.00 | 0.00 | 0.00 | 57 | |
| 20260904165842 | 75 | 146 | 2.6 | 4.3 | 0.00 | 0.00 | 0.00 | 58 | |
| 20260904165436 | 74 | 172 | 0.0 | 5.2 | 0.00 | 0.00 | 0.00 | 58 | |
| 20260904165234 | 73 | 165 | 0.0 | 7.8 | 0.00 | 0.00 | 0.00 | 60 | |
| 20260904165032 | 73 | 82 | 2.6 | 7.8 | 0.00 | 0.00 | 0.00 | 60 | |
| 20260904164832 | 73 | 92 | 2.6 | 7.8 | 0.00 | 0.00 | 0.00 | 60 | |
| 20260904164426 | 73 | 80 | 2.6 | 6.1 | 0.00 | 0.00 | 0.00 | 60 | |
| 20260904164224 | 73 | 102 | 4.3 | 6.1 | 0.00 | 0.00 | 0.00 | 61 | |
| 20260904164022 | 73 | 90 | 4.3 | 6.1 | 0.00 | 0.00 | 0.00 | 61 | |
| 20260904163820 | 73 | 90 | 3.5 | 6.1 | 0.00 | 0.00 | 0.00 | 61 | |
| 20260904163618 | 73 | 122 | 1.7 | 7.8 | 0.00 | 0.00 | 0.00 | 61 | |
| 20260904163416 | 72 | 140 | 3.5 | 7.8 | 0.00 | 0.00 | 0.00 | 61 | |
| 20260904163214 | 72 | 118 | 4.3 | 7.0 | 0.00 | 0.00 | 0.00 | 61 | |
| 20260904163012 | 72 | 95 | 6.1 | 7.0 | 0.00 | 0.00 | 0.00 | 61 | |
| 20260904162812 | 72 | 112 | 3.5 | 7.0 | 0.00 | 0.00 | 0.00 | 60 | |
| 20260904162611 | 72 | 153 | 1.7 | 7.0 | 0.00 | 0.00 | 0.00 | 62 | |
| 20260904162407 | 72 | 56 | 0.0 | 7.0 | 0.00 | 0.00 | 0.00 | 63 | |
| 20260904162205 | 72 | 36 | 0.0 | 7.0 | 0.00 | 0.00 | 0.00 | 64 | |
| 20260904162003 | 72 | 119 | 6.1 | 7.0 | 0.00 | 0.00 | 0.00 | 63 | |
| 20260904161801 | 72 | 118 | 4.3 | 7.0 | 0.00 | 0.00 | 0.00 | 63 | |
| 20260904161601 | 72 | 163 | 2.6 | 6.1 | 0.00 | 0.00 | 0.00 | 63 | |
| 20260904161358 | 72 | 151 | 3.5 | 6.1 | 0.00 | 0.00 | 0.00 | 63 | |
| 20260904161157 | 72 | 132 | 3.5 | 5.2 | 0.00 | 0.00 | 0.00 | 63 | |
| 20260904160953 | 72 | 109 | 4.3 | 5.2 | 0.00 | 0.00 | 0.00 | 65 | |
| 20260904160753 | 72 | 87 | 0.9 | 5.2 | 0.00 | 0.00 | 0.00 | 66 | |
| 20260904160551 | 71 | 87 | 0.9 | 6.1 | 0.00 | 0.00 | 0.00 | 66 | |
| 20260904160347 | 71 | 132 | 3.5 | 6.1 | 0.00 | 0.00 | 0.00 | 67 | |
| 20260904160145 | 71 | 122 | 3.5 | 5.2 | 0.00 | 0.00 | 0.00 | 67 | |
| 20260904155948 | 71 | 111 | 3.5 | 5.2 | 0.00 | 0.00 | 0.00 | 66 | |
| 20260904155945 | 71 | 111 | 3.5 | 5.2 | 0.00 | 0.00 | 0.00 | 66 | |
| 20260904155741 | 71 | 133 | 4.3 | 6.1 | 0.00 | 0.00 | 0.00 | 66 | |
| 20260904155337 | 71 | 122 | 3.5 | 6.1 | 0.00 | 0.00 | 0.00 | 67 | |
| 20260904155135 | 71 | 151 | 2.6 | 6.1 | 0.00 | 0.00 | 0.00 | 68 | |
| 20260904154933 | 70 | 122 | 3.5 | 6.1 | 0.00 | 0.00 | 0.00 | 69 | |
| 20260904154733 | 70 | 151 | 2.6 | 7.0 | 0.00 | 0.00 | 0.00 | 68 | |
| 20260904154529 | 70 | 137 | 3.5 | 7.0 | 0.00 | 0.00 | 0.00 | 70 | |
| 20260904154327 | 70 | 116 | 2.6 | 7.0 | 0.00 | 0.00 | 0.00 | 70 | |
| 20260904154125 | 69 | 127 | 2.6 | 5.2 | 0.00 | 0.00 | 0.00 | 71 | |
| 20260904153924 | 69 | 150 | 3.5 | 5.2 | 0.00 | 0.00 | 0.00 | 72 | |
| 20260904153722 | 69 | 135 | 2.6 | 6.1 | 0.00 | 0.00 | 0.00 | 72 | |
| 20260904153520 | 69 | 113 | 3.5 | 6.1 | 0.00 | 0.00 | 0.00 | 72 | |
| 20260904153318 | 69 | 135 | 4.3 | 6.1 | 0.00 | 0.00 | 0.00 | 72 | |
| 20260904153116 | 69 | 95 | 4.3 | 6.1 | 0.00 | 0.00 | 0.00 | 73 | |
| 20260904152914 | 69 | 137 | 2.6 | 6.1 | 0.00 | 0.00 | 0.00 | 74 | |
| 20260904152712 | 68 | 132 | 2.6 | 6.1 | 0.00 | 0.00 | 0.00 | 74 | |
| 20260904152510 | 68 | 136 | 6.1 | 6.1 | 0.00 | 0.00 | 0.00 | 75 | |
| 20260904152308 | 68 | 123 | 2.6 | 6.1 | 0.00 | 0.00 | 0.00 | 75 | |
| 20260904152106 | 68 | 111 | 4.3 | 5.2 | 0.00 | 0.00 | 0.00 | 74 | |
| 20260904151904 | 68 | 118 | 3.5 | 5.2 | 0.00 | 0.00 | 0.00 | 75 | |
| 20260904151703 | 68 | 112 | 3.5 | 5.2 | 0.00 | 0.00 | 0.00 | 76 | |
| 20260904151501 | 67 | 116 | 4.3 | 5.2 | 0.00 | 0.00 | 0.00 | 76 | |
| 20260904151259 | 67 | 108 | 3.5 | 5.2 | 0.00 | 0.00 | 0.00 | 76 | |
| 20260904151057 | 67 | 94 | 4.3 | 4.3 | 0.00 | 0.00 | 0.00 | 76 | |
| 20260904150855 | 67 | 101 | 4.3 | 4.3 | 0.00 | 0.00 | 0.00 | 76 | |
| 20260904150653 | 66 | 132 | 1.7 | 2.6 | 0.00 | 0.00 | 0.00 | 77 | |
| 20260904150451 | 66 | 144 | 0.9 | 2.6 | 0.00 | 0.00 | 0.00 | 78 | |
| 20260904150249 | 66 | 112 | 2.6 | 2.6 | 0.00 | 0.00 | 0.00 | 78 | |
| 20260904150047 | 65 | 108 | 1.7 | 3.5 | 0.00 | 0.00 | 0.00 | 79 | |
| 20260904145845 | 65 | 130 | 1.7 | 3.5 | 0.00 | 0.00 | 0.00 | 79 | |
| 20260904145643 | 65 | 129 | 0.9 | 2.6 | 0.00 | 0.00 | 0.00 | 80 | |
| 20260904145038 | 64 | 90 | 2.6 | 0.0 | 0.00 | 0.00 | 0.00 | 81 | |
| 20260904144432 | 64 | 53 | 0.0 | 0.0 | 0.00 | 0.00 | 0.00 | 82 | |
| 20260904144232 | 64 | 53 | 0.0 | 0.0 | 0.00 | 0.00 | 0.00 | 82 | |
| 20260904144028 | 63 | 53 | 0.0 | 0.0 | 0.00 | 0.00 | 0.00 | 83 | |
| 20260904143826 | 63 | 53 | 0.0 | 0.0 | 0.00 | 0.00 | 0.00 | 84 | |
| 20260904143624 | 63 | 53 | 0.0 | 0.0 | 0.00 | 0.00 | 0.00 | 85 | |
| 20260904143423 | 63 | 53 | 0.0 | 0.0 | 0.00 | 0.00 | 0.00 | 86 | |
| 20260904143019 | 62 | 53 | 0.0 | 0.0 | 0.00 | 0.00 | 0.00 | 86 | |
| 20260904142817 | 62 | 53 | 0.0 | 0.0 | 0.00 | 0.00 | 0.00 | 86 | |
| 20260904142616 | 62 | 53 | 0.0 | 0.0 | 0.00 | 0.00 | 0.00 | 87 | |
| 20260904142413 | 62 | 53 | 0.0 | 0.0 | 0.00 | 0.00 | 0.00 | 87 | |
| 20260904142211 | 62 | 53 | 0.0 | 0.0 | 0.00 | 0.00 | 0.00 | 87 | |
| 20260904142009 | 62 | 53 | 0.0 | 0.0 | 0.00 | 0.00 | 0.00 | 87 | |
| 20260904141807 | 62 | 53 | 0.0 | 0.0 | 0.00 | 0.00 | 0.00 | 87 | |
| 20260904141605 | 62 | 53 | 0.0 | 0.0 | 0.00 | 0.00 | 0.00 | 87 | |
| 20260904141403 | 62 | 53 | 0.0 | 0.0 | 0.00 | 0.00 | 0.00 | 87 | |
| 20260904141202 | 62 | 53 | 0.0 | 0.0 | 0.00 | 0.00 | 0.00 | 87 | |
| 20260904141000 | 62 | 53 | 0.0 | 0.0 | 0.00 | 0.00 | 0.00 | 87 | |
| 20260904140758 | 62 | 53 | 0.0 | 0.0 | 0.00 | 0.00 | 0.00 | 87 | |
| 20260904140556 | 61 | 53 | 0.0 | 0.0 | 0.00 | 0.00 | 0.00 | 87 | |
| 20260904140354 | 61 | 53 | 0.0 | 0.0 | 0.00 | 0.00 | 0.00 | 88 | |
| 20260904140154 | 61 | 53 | 0.0 | 0.0 | 0.00 | 0.00 | 0.00 | 88 | |
| 20260904135952 | 61 | 53 | 0.0 | 0.0 | 0.00 | 0.00 | 0.00 | 88 | |
| 20260904135748 | 61 | 53 | 0.0 | 0.0 | 0.00 | 0.00 | 0.00 | 88 | |
| 20260904135547 | 61 | 53 | 0.0 | 0.0 | 0.00 | 0.00 | 0.00 | 88 | |
| 20260904135344 | 61 | 53 | 0.0 | 0.0 | 0.00 | 0.00 | 0.00 | 88 | |
| 20260904135143 | 61 | 53 | 0.0 | 0.9 | 0.00 | 0.00 | 0.00 | 88 | |
| 20260904134739 | 61 | 53 | 0.0 | 1.7 | 0.00 | 0.00 | 0.00 | 88 | |
| 20260904134335 | 61 | 63 | 0.0 | 1.7 | 0.00 | 0.00 | 0.00 | 88 | |
| 20260904134133 | 61 | 57 | 0.0 | 1.7 | 0.00 | 0.00 | 0.00 | 88 | |
| 20260904133933 | 61 | 54 | 0.0 | 1.7 | 0.00 | 0.00 | 0.00 | 88 | |
| 20260904133731 | 61 | 71 | 0.9 | 0.0 | 0.00 | 0.00 | 0.00 | 88 | |
| 20260904133325 | 61 | 42 | 0.0 | 0.0 | 0.00 | 0.00 | 0.00 | 88 | |
| 20260904132922 | 61 | 42 | 0.0 | 0.9 | 0.00 | 0.00 | 0.00 | 88 | |
| 20260904132720 | 61 | 82 | 0.0 | 0.9 | 0.00 | 0.00 | 0.00 | 88 | |
| 20260904132518 | 61 | 82 | 0.0 | 0.9 | 0.00 | 0.00 | 0.00 | 88 | |
| 20260904132316 | 61 | 82 | 0.0 | 0.9 | 0.00 | 0.00 | 0.00 | 88 | |
| 20260904132114 | 61 | 60 | 0.0 | 0.0 | 0.00 | 0.00 | 0.00 | 88 | |
| 20260904131912 | 61 | 60 | 0.0 | 0.0 | 0.00 | 0.00 | 0.00 | 88 | |
| 20260904131710 | 61 | 60 | 0.0 | 0.0 | 0.00 | 0.00 | 0.00 | 88 | |
| 20260904131508 | 61 | 60 | 0.0 | 0.0 | 0.00 | 0.00 | 0.00 | 88 | |
| 20260904131306 | 61 | 60 | 0.0 | 0.0 | 0.00 | 0.00 | 0.00 | 88 | |
| 20260904131104 | 61 | 60 | 0.0 | 4.3 | 0.00 | 0.00 | 0.00 | 88 | |
| 20260904130903 | 61 | 60 | 0.0 | 4.3 | 0.00 | 0.00 | 0.00 | 88 | |
| 20260904130701 | 61 | 60 | 0.0 | 4.3 | 0.00 | 0.00 | 0.00 | 88 | |
| 20260904130257 | 61 | 106 | 1.7 | 4.3 | 0.00 | 0.00 | 0.00 | 88 | |
| 20260904130055 | 61 | 108 | 3.5 | 4.3 | 0.00 | 0.00 | 0.00 | 88 | |
| 20260904125853 | 61 | 75 | 0.9 | 4.3 | 0.00 | 0.00 | 0.00 | 88 | |
| 20260904125651 | 60 | 106 | 4.3 | 3.5 | 0.00 | 0.00 | 0.00 | 88 | |
| 20260904125449 | 60 | 75 | 1.7 | 3.5 | 0.00 | 0.00 | 0.00 | 88 | |
| 20260904125247 | 60 | 104 | 2.6 | 3.5 | 0.00 | 0.00 | 0.00 | 88 | |
| 20260904125045 | 60 | 102 | 1.7 | 3.5 | 0.00 | 0.00 | 0.00 | 87 | |
| 20260904124844 | 60 | 106 | 2.6 | 3.5 | 0.00 | 0.00 | 0.00 | 87 | |
| 20260904124642 | 60 | 112 | 0.9 | 3.5 | 0.00 | 0.00 | 0.00 | 87 | |
| 20260904124441 | 60 | 120 | 1.7 | 3.5 | 0.00 | 0.00 | 0.00 | 87 | |
| 20260904124238 | 60 | 106 | 2.6 | 4.3 | 0.00 | 0.00 | 0.00 | 87 | |
| 20260904124036 | 60 | 113 | 1.7 | 4.3 | 0.00 | 0.00 | 0.00 | 87 | |
| 20260904123834 | 60 | 112 | 2.6 | 4.3 | 0.00 | 0.00 | 0.00 | 88 | |
| 20260904123632 | 60 | 99 | 3.5 | 3.5 | 0.00 | 0.00 | 0.00 | 88 | |
| 20260904123430 | 60 | 102 | 2.6 | 3.5 | 0.00 | 0.00 | 0.00 | 88 | |
| 20260904123228 | 60 | 97 | 0.9 | 0.0 | 0.00 | 0.00 | 0.00 | 88 | |
| 20260904123026 | 60 | 113 | 2.6 | 0.0 | 0.00 | 0.00 | 0.00 | 88 | |
| 20260904122824 | 60 | 175 | 0.0 | 0.0 | 0.00 | 0.00 | 0.00 | 87 | |
| 20260904122623 | 60 | 175 | 0.0 | 0.0 | 0.00 | 0.00 | 0.00 | 87 | |
| 20260904122422 | 60 | 175 | 0.0 | 0.0 | 0.00 | 0.00 | 0.00 | 88 | |
| 20260904122219 | 60 | 175 | 0.0 | 0.0 | 0.00 | 0.00 | 0.00 | 88 | |
| 20260904122017 | 60 | 175 | 0.0 | 0.0 | 0.00 | 0.00 | 0.00 | 88 | |
| 20260904121816 | 60 | 175 | 0.0 | 0.0 | 0.00 | 0.00 | 0.00 | 88 | |
| 20260904121613 | 60 | 175 | 0.0 | 0.0 | 0.00 | 0.00 | 0.00 | 88 | |
| 20260904121411 | 60 | 175 | 0.0 | 0.0 | 0.00 | 0.00 | 0.00 | 88 | |
| 20260904121209 | 60 | 175 | 0.0 | 0.0 | 0.00 | 0.00 | 0.00 | 88 | |
| 20260904120805 | 60 | 175 | 0.0 | 0.0 | 0.00 | 0.00 | 0.00 | 88 | |
| 20260904120605 | 60 | 175 | 0.0 | 0.0 | 0.00 | 0.00 | 0.00 | 88 | |
| 20260904120402 | 60 | 175 | 0.0 | 0.0 | 0.00 | 0.00 | 0.00 | 88 | |
| 20260904120200 | 60 | 175 | 0.0 | 0.0 | 0.00 | 0.00 | 0.00 | 88 | |
| 20260904115958 | 60 | 175 | 0.0 | 0.0 | 0.00 | 0.00 | 0.00 | 88 | |
| 20260904115556 | 60 | 175 | 0.0 | 0.0 | 0.00 | 0.00 | 0.00 | 88 | |
| 20260904115352 | 60 | 175 | 0.0 | 0.0 | 0.00 | 0.00 | 0.00 | 88 | |
| 20260904115150 | 60 | 175 | 0.0 | 0.0 | 0.00 | 0.00 | 0.00 | 88 | |
| 20260904114948 | 60 | 175 | 0.0 | 0.0 | 0.00 | 0.00 | 0.00 | 89 | |
| 20260904114746 | 59 | 175 | 0.0 | 0.0 | 0.00 | 0.00 | 0.00 | 88 | |
| 20260904114544 | 60 | 175 | 0.0 | 0.0 | 0.00 | 0.00 | 0.00 | 88 | |
| 20260904114343 | 59 | 175 | 0.0 | 0.0 | 0.00 | 0.00 | 0.00 | 88 | |
| 20260904114141 | 59 | 175 | 0.0 | 0.0 | 0.00 | 0.00 | 0.00 | 88 | |
| 20260904113939 | 59 | 175 | 0.0 | 0.0 | 0.00 | 0.00 | 0.00 | 88 | |
| 20260904113737 | 59 | 175 | 0.0 | 0.0 | 0.00 | 0.00 | 0.00 | 88 | |
| 20260904113535 | 59 | 175 | 0.0 | 0.0 | 0.00 | 0.00 | 0.00 | 88 | |
| 20260904113333 | 59 | 175 | 0.0 | 0.0 | 0.00 | 0.00 | 0.00 | 88 | |
| 20260904113131 | 59 | 175 | 0.0 | 0.0 | 0.00 | 0.00 | 0.00 | 88 | |
| 20260904112929 | 59 | 175 | 0.0 | 0.0 | 0.00 | 0.00 | 0.00 | 88 | |
| 20260904112729 | 59 | 175 | 0.0 | 0.0 | 0.00 | 0.00 | 0.00 | 88 | |
| 20260904112525 | 59 | 175 | 0.0 | 0.0 | 0.00 | 0.00 | 0.00 | 88 | |
| 20260904112324 | 59 | 175 | 0.0 | 0.0 | 0.00 | 0.00 | 0.00 | 88 | |
| 20260904112122 | 59 | 175 | 0.0 | 0.0 | 0.00 | 0.00 | 0.00 | 88 | |
| 20260904111920 | 59 | 175 | 0.0 | 0.0 | 0.00 | 0.00 | 0.00 | 88 | |
| 20260904111718 | 59 | 175 | 0.0 | 0.0 | 0.00 | 0.00 | 0.00 | 88 | |
| 20260904111516 | 59 | 175 | 0.0 | 0.0 | 0.00 | 0.00 | 0.00 | 87 | |
| 20260904111314 | 59 | 175 | 0.0 | 0.0 | 0.00 | 0.00 | 0.00 | 87 | |
| 20260904111113 | 59 | 175 | 0.0 | 0.0 | 0.00 | 0.00 | 0.00 | 87 | |
| 20260904110912 | 59 | 175 | 0.0 | 0.0 | 0.00 | 0.00 | 0.00 | 87 | |
| 20260904110710 | 59 | 175 | 0.0 | 0.0 | 0.00 | 0.00 | 0.00 | 87 | |
| 20260904110306 | 59 | 175 | 0.0 | 0.0 | 0.00 | 0.00 | 0.00 | 87 | |
| 20260904110105 | 59 | 175 | 0.0 | 0.0 | 0.00 | 0.00 | 0.00 | 87 | |
| 20260904105902 | 59 | 175 | 0.0 | 0.0 | 0.00 | 0.00 | 0.00 | 87 | |
| 20260904105659 | 59 | 175 | 0.0 | 0.0 | 0.00 | 0.00 | 0.00 | 87 | |
| 20260904105458 | 59 | 175 | 0.0 | 0.0 | 0.00 | 0.00 | 0.00 | 87 | |
| 20260904105255 | 59 | 175 | 0.0 | 0.0 | 0.00 | 0.00 | 0.00 | 87 | |
| 20260904105053 | 59 | 175 | 0.0 | 0.0 | 0.00 | 0.00 | 0.00 | 86 | |
| 20260904104853 | 59 | 175 | 0.0 | 0.0 | 0.00 | 0.00 | 0.00 | 86 | |
| 20260904104650 | 59 | 175 | 0.0 | 0.0 | 0.00 | 0.00 | 0.00 | 86 | |
| 20260904104447 | 59 | 175 | 0.0 | 0.0 | 0.00 | 0.00 | 0.00 | 86 |